Time,TemperatureF,DewpointF,PressureIn,WindDirection,WindDirectionDegrees,WindSpeedMPH,WindSpeedGustMPH,Humidity,HourlyPrecipIn,Conditions,Clouds,dailyrainin,SoftwareType,DateUTC
2017-02-23 00:01:00,41.4,34.1,30.21,WNW,298,2.0,2.0,75,0.00,,,0.00,Wunderground v.1.15,2017-02-23 08:01:00,
2017-02-23 00:11:00,41.6,33.9,30.21,WNW,290,1.0,1.0,74,0.00,,,0.00,Wunderground v.1.15,2017-02-23 08:11:00,
2017-02-23 00:16:00,41.6,33.9,30.20,NW,311,1.0,1.0,74,0.00,,,0.00,Wunderground v.1.15,2017-02-23 08:16:00,
2017-02-23 00:21:00,41.5,33.8,30.20,WSW,250,1.0,4.0,74,0.00,,,0.00,Wunderground v.1.15,2017-02-23 08:21:00,
2017-02-23 00:26:00,41.3,33.6,30.20,WSW,248,1.0,4.0,74,0.00,,,0.00,Wunderground v.1.15,2017-02-23 08:26:00,
2017-02-23 00:31:00,41.3,33.6,30.21,WNW,302,1.0,1.0,74,0.00,,,0.00,Wunderground v.1.15,2017-02-23 08:31:00,
2017-02-23 00:41:00,41.1,33.4,30.20,West,262,1.0,1.0,74,0.00,,,0.00,Wunderground v.1.15,2017-02-23 08:41:00,
2017-02-23 00:51:00,40.8,33.5,30.20,WNW,282,1.0,4.0,75,0.00,,,0.00,Wunderground v.1.15,2017-02-23 08:51:00,
2017-02-23 00:56:00,40.8,33.5,30.20,West,270,2.0,4.0,75,0.00,,,0.00,Wunderground v.1.15,2017-02-23 08:56:00,
2017-02-23 01:01:00,40.8,33.5,30.20,WSW,253,1.0,1.0,75,0.00,,,0.00,Wunderground v.1.15,2017-02-23 09:01:00,
2017-02-23 01:11:00,40.4,33.4,30.20,NNW,343,0.0,0.0,76,0.00,,,0.00,Wunderground v.1.15,2017-02-23 09:11:00,
2017-02-23 01:16:00,40.2,32.6,30.20,WNW,288,0.0,0.0,74,0.00,,,0.00,Wunderground v.1.15,2017-02-23 09:16:00,
2017-02-23 01:26:00,40.2,32.9,30.20,WNW,288,0.0,0.0,75,0.00,,,0.00,Wunderground v.1.15,2017-02-23 09:26:00,
2017-02-23 01:31:00,39.7,32.8,30.20,South,191,0.0,0.0,76,0.00,,,0.00,Wunderground v.1.15,2017-02-23 09:31:00,
2017-02-23 01:41:00,39.8,32.5,30.20,North,360,0.0,0.0,75,0.00,,,0.00,Wunderground v.1.15,2017-02-23 09:41:00,
2017-02-23 01:46:00,39.8,32.5,30.20,NNE,14,0.0,0.0,75,0.00,,,0.00,Wunderground v.1.15,2017-02-23 09:46:00,
2017-02-23 01:56:00,39.3,32.7,30.20,NNE,22,0.0,0.0,77,0.00,,,0.00,Wunderground v.1.15,2017-02-23 09:56:00,
2017-02-23 02:01:00,39.2,32.6,30.20,NE,46,0.0,0.0,77,0.00,,,0.00,Wunderground v.1.15,2017-02-23 10:01:00,
2017-02-23 02:11:00,39.5,32.6,30.20,NE,35,0.0,0.0,76,0.00,,,0.00,Wunderground v.1.15,2017-02-23 10:11:00,
2017-02-23 02:16:00,39.8,32.2,30.20,NNW,327,0.0,0.0,74,0.00,,,0.00,Wunderground v.1.15,2017-02-23 10:16:00,
2017-02-23 02:26:00,39.9,32.6,30.20,North,5,0.0,0.0,75,0.00,,,0.00,Wunderground v.1.15,2017-02-23 10:26:00,
2017-02-23 02:31:00,39.8,32.5,30.20,NNW,344,0.0,0.0,75,0.00,,,0.00,Wunderground v.1.15,2017-02-23 10:31:00,
2017-02-23 02:41:00,39.8,32.5,30.20,NNW,344,0.0,0.0,75,0.00,,,0.00,Wunderground v.1.15,2017-02-23 10:41:00,
2017-02-23 02:46:00,39.8,32.2,30.20,NW,323,0.0,0.0,74,0.00,,,0.00,Wunderground v.1.15,2017-02-23 10:46:00,
2017-02-23 02:56:00,39.5,32.2,30.20,NW,320,0.0,0.0,75,0.00,,,0.00,Wunderground v.1.15,2017-02-23 10:56:00,
2017-02-23 03:01:00,39.3,32.4,30.20,NE,41,0.0,0.0,76,0.00,,,0.00,Wunderground v.1.15,2017-02-23 11:01:00,
2017-02-23 03:11:00,38.5,32.2,30.20,North,10,0.0,0.0,78,0.00,,,0.00,Wunderground v.1.15,2017-02-23 11:11:00,
2017-02-23 03:16:00,38.6,32.0,30.19,NW,306,0.0,0.0,77,0.00,,,0.00,Wunderground v.1.15,2017-02-23 11:16:00,
2017-02-23 03:26:00,38.8,31.9,30.19,NW,322,0.0,0.0,76,0.00,,,0.00,Wunderground v.1.15,2017-02-23 11:26:00,
2017-02-23 03:31:00,38.7,32.1,30.19,NNW,343,0.0,0.0,77,0.00,,,0.00,Wunderground v.1.15,2017-02-23 11:31:00,
2017-02-23 03:41:00,38.8,31.9,30.19,NNW,327,0.0,0.0,76,0.00,,,0.00,Wunderground v.1.15,2017-02-23 11:41:00,
2017-02-23 03:51:00,38.7,32.1,30.19,NW,315,0.0,2.0,77,0.00,,,0.00,Wunderground v.1.15,2017-02-23 11:51:00,
2017-02-23 03:56:00,38.8,31.9,30.19,NNW,327,0.0,2.0,76,0.00,,,0.00,Wunderground v.1.15,2017-02-23 11:56:00,
2017-02-23 04:01:00,38.9,32.0,30.19,NNW,333,0.0,0.0,76,0.00,,,0.00,Wunderground v.1.15,2017-02-23 12:01:00,
2017-02-23 04:11:00,38.8,31.6,30.19,NW,319,0.0,0.0,75,0.00,,,0.00,Wunderground v.1.15,2017-02-23 12:11:00,
2017-02-23 04:16:00,38.8,31.9,30.19,NW,325,0.0,0.0,76,0.00,,,0.00,Wunderground v.1.15,2017-02-23 12:16:00,
2017-02-23 04:26:00,38.8,31.6,30.20,NNW,336,0.0,1.0,75,0.00,,,0.00,Wunderground v.1.15,2017-02-23 12:26:00,
2017-02-23 04:31:00,38.7,31.8,30.20,NNE,21,0.0,0.0,76,0.00,,,0.00,Wunderground v.1.15,2017-02-23 12:31:00,
2017-02-23 04:41:00,38.7,31.8,30.20,NW,317,1.0,1.0,76,0.00,,,0.00,Wunderground v.1.15,2017-02-23 12:41:00,
2017-02-23 04:46:00,38.6,31.7,30.20,NW,305,1.0,3.0,76,0.00,,,0.00,Wunderground v.1.15,2017-02-23 12:46:00,
2017-02-23 04:51:00,38.7,31.8,30.20,NNW,329,1.0,1.0,76,0.00,,,0.00,Wunderground v.1.15,2017-02-23 12:51:00,
2017-02-23 05:01:00,38.7,31.8,30.20,WNW,299,1.0,4.0,76,0.00,,,0.00,Wunderground v.1.15,2017-02-23 13:01:00,
2017-02-23 05:11:00,38.7,32.1,30.20,North,360,1.0,1.0,77,0.00,,,0.00,Wunderground v.1.15,2017-02-23 13:11:00,
2017-02-23 05:16:00,38.6,31.7,30.20,NNW,332,1.0,1.0,76,0.00,,,0.00,Wunderground v.1.15,2017-02-23 13:16:00,
2017-02-23 05:21:00,38.8,31.9,30.20,NNW,343,1.0,2.0,76,0.00,,,0.00,Wunderground v.1.15,2017-02-23 13:21:00,
2017-02-23 05:26:00,38.9,32.0,30.20,NW,310,1.0,2.0,76,0.00,,,0.00,Wunderground v.1.15,2017-02-23 13:26:00,
2017-02-23 05:31:00,38.8,31.9,30.20,NW,310,0.0,0.0,76,0.00,,,0.00,Wunderground v.1.15,2017-02-23 13:31:00,
2017-02-23 05:41:00,38.5,31.9,30.20,NNW,336,0.0,0.0,77,0.00,,,0.00,Wunderground v.1.15,2017-02-23 13:41:00,
2017-02-23 05:46:00,38.3,31.7,30.20,North,351,0.0,0.0,77,0.00,,,0.00,Wunderground v.1.15,2017-02-23 13:46:00,
2017-02-23 05:51:00,38.3,32.0,30.20,NNW,339,0.0,0.0,78,0.00,,,0.00,Wunderground v.1.15,2017-02-23 13:51:00,
2017-02-23 05:56:00,38.1,31.8,30.20,NNW,344,0.0,0.0,78,0.00,,,0.00,Wunderground v.1.15,2017-02-23 13:56:00,
2017-02-23 06:01:00,37.9,31.7,30.21,NNW,344,0.0,0.0,78,0.00,,,0.00,Wunderground v.1.15,2017-02-23 14:01:00,
2017-02-23 06:11:00,38.1,32.2,30.21,NE,36,0.0,0.0,79,0.00,,,0.00,Wunderground v.1.15,2017-02-23 14:11:00,
2017-02-23 06:21:00,38.0,31.4,30.21,NNW,328,1.0,1.0,77,0.00,,,0.00,Wunderground v.1.15,2017-02-23 14:21:00,
2017-02-23 06:26:00,38.5,31.9,30.21,NW,321,1.0,1.0,77,0.00,,,0.00,Wunderground v.1.15,2017-02-23 14:26:00,
2017-02-23 06:31:00,38.5,31.6,30.21,NNW,340,1.0,1.0,76,0.00,,,0.00,Wunderground v.1.15,2017-02-23 14:31:00,
2017-02-23 06:41:00,38.3,31.7,30.21,NNW,344,0.0,0.0,77,0.00,,,0.00,Wunderground v.1.15,2017-02-23 14:41:00,
2017-02-23 06:51:00,37.9,32.0,30.22,NNE,32,0.0,0.0,79,0.00,,,0.00,Wunderground v.1.15,2017-02-23 14:51:00,
2017-02-23 06:56:00,37.7,32.1,30.22,NNE,32,0.0,0.0,80,0.00,,,0.00,Wunderground v.1.15,2017-02-23 14:56:00,
2017-02-23 07:01:00,37.5,31.9,30.22,NNE,32,0.0,0.0,80,0.00,,,0.00,Wunderground v.1.15,2017-02-23 15:01:00,
2017-02-23 07:11:00,37.9,31.7,30.22,NNE,23,0.0,0.0,78,0.00,,,0.00,Wunderground v.1.15,2017-02-23 15:11:00,
2017-02-23 07:16:00,38.2,31.9,30.23,NW,311,0.0,0.0,78,0.00,,,0.00,Wunderground v.1.15,2017-02-23 15:16:00,
2017-02-23 07:26:00,38.8,32.2,30.23,NW,317,1.0,1.0,77,0.00,,,0.00,Wunderground v.1.15,2017-02-23 15:26:00,
2017-02-23 07:31:00,39.0,32.4,30.23,NNW,332,1.0,1.0,77,0.00,,,0.00,Wunderground v.1.15,2017-02-23 15:31:00,
2017-02-23 07:41:00,39.2,32.3,30.23,NW,319,0.0,3.0,76,0.00,,,0.00,Wunderground v.1.15,2017-02-23 15:41:00,
2017-02-23 07:46:00,39.3,32.4,30.23,WNW,288,1.0,3.0,76,0.00,,,0.00,Wunderground v.1.15,2017-02-23 15:46:00,
2017-02-23 07:51:00,39.3,32.7,30.23,SW,217,1.0,1.0,77,0.00,,,0.00,Wunderground v.1.15,2017-02-23 15:51:00,
2017-02-23 08:01:00,38.8,32.8,30.24,West,260,0.0,2.0,79,0.00,,,0.00,Wunderground v.1.15,2017-02-23 16:01:00,
2017-02-23 08:11:00,39.5,33.2,30.24,WNW,288,0.0,0.0,78,0.00,,,0.00,Wunderground v.1.15,2017-02-23 16:11:00,
2017-02-23 08:16:00,40.5,33.5,30.24,WSW,246,0.0,0.0,76,0.00,,,0.00,Wunderground v.1.15,2017-02-23 16:16:00,
2017-02-23 08:21:00,41.4,33.7,30.24,SW,215,0.0,0.0,74,0.00,,,0.00,Wunderground v.1.15,2017-02-23 16:21:00,
2017-02-23 08:26:00,42.4,34.7,30.25,WNW,288,0.0,4.0,74,0.00,,,0.00,Wunderground v.1.15,2017-02-23 16:26:00,
2017-02-23 08:31:00,43.2,34.4,30.25,West,271,1.0,1.0,71,0.00,,,0.00,Wunderground v.1.15,2017-02-23 16:31:00,
2017-02-23 08:41:00,44.0,33.7,30.25,WNW,284,2.0,7.0,67,0.00,,,0.00,Wunderground v.1.15,2017-02-23 16:41:00,
2017-02-23 08:46:00,44.4,33.4,30.25,West,265,3.0,7.0,65,0.00,,,0.00,Wunderground v.1.15,2017-02-23 16:46:00,
2017-02-23 08:51:00,44.5,33.1,30.25,WNW,302,3.0,3.0,64,0.00,,,0.00,Wunderground v.1.15,2017-02-23 16:51:00,
2017-02-23 08:56:00,44.7,33.3,30.25,NNW,328,3.0,8.0,64,0.00,,,0.00,Wunderground v.1.15,2017-02-23 16:56:00,
2017-02-23 09:01:00,45.0,33.5,30.25,SW,236,3.0,3.0,64,0.00,,,0.00,Wunderground v.1.15,2017-02-23 17:01:00,
2017-02-23 09:11:00,45.6,34.1,30.25,NW,309,2.0,4.0,64,0.00,,,0.00,Wunderground v.1.15,2017-02-23 17:11:00,
2017-02-23 09:21:00,46.2,33.9,30.25,WNW,282,2.0,2.0,62,0.00,,,0.00,Wunderground v.1.15,2017-02-23 17:21:00,
2017-02-23 09:26:00,46.7,34.4,30.25,NNW,327,2.0,2.0,62,0.00,,,0.00,Wunderground v.1.15,2017-02-23 17:26:00,
2017-02-23 09:31:00,47.0,34.2,30.25,NNW,337,2.0,2.0,61,0.00,,,0.00,Wunderground v.1.15,2017-02-23 17:31:00,
2017-02-23 09:41:00,47.2,33.2,30.25,WSW,239,2.0,2.0,58,0.00,,,0.00,Wunderground v.1.15,2017-02-23 17:41:00,
2017-02-23 09:46:00,47.2,32.7,30.25,NW,324,3.0,6.0,57,0.00,,,0.00,Wunderground v.1.15,2017-02-23 17:46:00,
2017-02-23 09:51:00,47.3,34.1,30.24,WSW,255,3.0,3.0,60,0.00,,,0.00,Wunderground v.1.15,2017-02-23 17:51:00,
2017-02-23 09:56:00,47.7,32.8,30.24,NNW,330,2.0,4.0,56,0.00,,,0.00,Wunderground v.1.15,2017-02-23 17:56:00,
2017-02-23 10:01:00,48.0,33.9,30.24,West,272,2.0,2.0,58,0.00,,,0.00,Wunderground v.1.15,2017-02-23 18:01:00,
2017-02-23 10:11:00,48.5,32.6,30.25,NW,319,3.0,8.0,54,0.00,,,0.00,Wunderground v.1.15,2017-02-23 18:11:00,
2017-02-23 10:16:00,48.8,32.4,30.25,NNW,342,3.0,8.0,53,0.00,,,0.00,Wunderground v.1.15,2017-02-23 18:16:00,
2017-02-23 10:26:00,49.4,33.4,30.25,WSW,238,3.0,9.0,54,0.00,,,0.00,Wunderground v.1.15,2017-02-23 18:26:00,
2017-02-23 10:31:00,49.6,32.7,30.25,NNW,333,3.0,4.0,52,0.00,,,0.00,Wunderground v.1.15,2017-02-23 18:31:00,
2017-02-23 10:41:00,50.6,33.1,30.24,North,355,3.0,3.0,51,0.00,,,0.00,Wunderground v.1.15,2017-02-23 18:41:00,
2017-02-23 10:46:00,50.3,31.8,30.24,NW,325,3.0,13.0,49,0.00,,,0.00,Wunderground v.1.15,2017-02-23 18:46:00,
2017-02-23 10:56:00,49.7,31.3,30.24,North,355,5.0,7.0,49,0.00,,,0.00,Wunderground v.1.15,2017-02-23 18:56:00,
2017-02-23 11:01:00,49.9,32.0,30.24,NNW,340,6.0,6.0,50,0.00,,,0.00,Wunderground v.1.15,2017-02-23 19:01:00,
2017-02-23 11:11:00,50.6,33.1,30.24,West,269,3.0,4.0,51,0.00,,,0.00,Wunderground v.1.15,2017-02-23 19:11:00,
2017-02-23 11:16:00,50.9,33.4,30.24,WSW,254,4.0,4.0,51,0.00,,,0.00,Wunderground v.1.15,2017-02-23 19:16:00,
2017-02-23 11:21:00,51.3,32.3,30.24,NW,317,3.0,4.0,48,0.00,,,0.00,Wunderground v.1.15,2017-02-23 19:21:00,
2017-02-23 11:31:00,51.7,32.6,30.24,WNW,293,2.0,7.0,48,0.00,,,0.00,Wunderground v.1.15,2017-02-23 19:31:00,
2017-02-23 11:41:00,51.2,32.2,30.24,WSW,242,3.0,3.0,48,0.00,,,0.00,Wunderground v.1.15,2017-02-23 19:41:00,
2017-02-23 11:46:00,51.3,32.8,30.23,NNW,342,2.0,3.0,49,0.00,,,0.00,Wunderground v.1.15,2017-02-23 19:46:00,
2017-02-23 11:51:00,51.4,31.3,30.23,North,360,3.0,3.0,46,0.00,,,0.00,Wunderground v.1.15,2017-02-23 19:51:00,
2017-02-23 11:56:00,51.4,32.3,30.23,West,263,3.0,3.0,48,0.00,,,0.00,Wunderground v.1.15,2017-02-23 19:56:00,
2017-02-23 12:01:00,51.6,32.5,30.23,NNW,344,1.0,10.0,48,0.00,,,0.00,Wunderground v.1.15,2017-02-23 20:01:00,
2017-02-23 12:11:00,52.1,32.5,30.23,NW,316,4.0,4.0,47,0.00,,,0.00,Wunderground v.1.15,2017-02-23 20:11:00,
2017-02-23 12:16:00,52.4,31.7,30.23,NW,307,4.0,4.0,45,0.00,,,0.00,Wunderground v.1.15,2017-02-23 20:16:00,
2017-02-23 12:21:00,52.3,31.6,30.22,SSW,211,4.0,4.0,45,0.00,,,0.00,Wunderground v.1.15,2017-02-23 20:21:00,
2017-02-23 12:26:00,53.0,32.2,30.22,SW,225,4.0,4.0,45,0.00,,,0.00,Wunderground v.1.15,2017-02-23 20:26:00,
2017-02-23 12:31:00,53.7,32.3,30.22,WSW,240,5.0,5.0,44,0.00,,,0.00,Wunderground v.1.15,2017-02-23 20:31:00,
2017-02-23 12:41:00,53.6,32.8,30.22,West,279,3.0,3.0,45,0.00,,,0.00,Wunderground v.1.15,2017-02-23 20:41:00,
2017-02-23 12:46:00,54.1,33.2,30.22,WSW,257,3.0,7.0,45,0.00,,,0.00,Wunderground v.1.15,2017-02-23 20:46:00,
2017-02-23 12:51:00,54.4,33.5,30.21,SW,234,4.0,4.0,45,0.00,,,0.00,Wunderground v.1.15,2017-02-23 20:51:00,
2017-02-23 12:56:00,54.4,33.5,30.21,WNW,299,4.0,4.0,45,0.00,,,0.00,Wunderground v.1.15,2017-02-23 20:56:00,
2017-02-23 13:01:00,54.5,33.6,30.21,NNW,342,3.0,3.0,45,0.00,,,0.00,Wunderground v.1.15,2017-02-23 21:01:00,
2017-02-23 13:11:00,54.3,29.8,30.20,NNW,346,3.0,5.0,39,0.00,,,0.00,Wunderground v.1.15,2017-02-23 21:11:00,
2017-02-23 13:21:00,53.8,29.4,30.20,NNW,333,4.0,4.0,39,0.00,,,0.00,Wunderground v.1.15,2017-02-23 21:21:00,
2017-02-23 13:26:00,54.1,33.2,30.20,WSW,254,3.0,5.0,45,0.00,,,0.00,Wunderground v.1.15,2017-02-23 21:26:00,
2017-02-23 13:31:00,54.8,32.1,30.20,WNW,283,4.0,4.0,42,0.00,,,0.00,Wunderground v.1.15,2017-02-23 21:31:00,
2017-02-23 13:41:00,53.7,31.1,30.20,WNW,291,3.0,3.0,42,0.00,,,0.00,Wunderground v.1.15,2017-02-23 21:41:00,
2017-02-23 13:46:00,53.6,32.8,30.20,SW,233,3.0,3.0,45,0.00,,,0.00,Wunderground v.1.15,2017-02-23 21:46:00,
2017-02-23 13:56:00,54.4,30.6,30.20,West,259,3.0,4.0,40,0.00,,,0.00,Wunderground v.1.15,2017-02-23 21:56:00,
2017-02-23 14:01:00,54.1,28.4,30.19,WSW,254,4.0,4.0,37,0.00,,,0.00,Wunderground v.1.15,2017-02-23 22:01:00,
2017-02-23 14:11:00,54.3,32.3,30.19,WSW,257,4.0,4.0,43,0.00,,,0.00,Wunderground v.1.15,2017-02-23 22:11:00,
2017-02-23 14:16:00,54.7,30.2,30.19,West,281,3.0,8.0,39,0.00,,,0.00,Wunderground v.1.15,2017-02-23 22:16:00,
2017-02-23 14:21:00,54.6,28.2,30.19,West,264,5.0,5.0,36,0.00,,,0.00,Wunderground v.1.15,2017-02-23 22:21:00,
2017-02-23 14:31:00,54.6,29.5,30.19,WNW,284,4.0,4.0,38,0.00,,,0.00,Wunderground v.1.15,2017-02-23 22:31:00,
2017-02-23 14:41:00,54.7,28.2,30.18,NW,307,3.0,3.0,36,0.00,,,0.00,Wunderground v.1.15,2017-02-23 22:41:00,
2017-02-23 14:46:00,54.8,27.6,30.18,NNW,335,3.0,3.0,35,0.00,,,0.00,Wunderground v.1.15,2017-02-23 22:46:00,
2017-02-23 14:51:00,55.5,30.3,30.18,SSW,206,2.0,3.0,38,0.00,,,0.00,Wunderground v.1.15,2017-02-23 22:51:00,
2017-02-23 14:56:00,55.7,29.1,30.18,West,266,3.0,3.0,36,0.00,,,0.00,Wunderground v.1.15,2017-02-23 22:56:00,
2017-02-23 15:01:00,56.2,30.9,30.18,West,272,3.0,3.0,38,0.00,,,0.00,Wunderground v.1.15,2017-02-23 23:01:00,
2017-02-23 15:11:00,56.5,29.8,30.18,West,279,3.0,3.0,36,0.00,,,0.00,Wunderground v.1.15,2017-02-23 23:11:00,
2017-02-23 15:16:00,56.5,29.1,30.18,West,259,2.0,7.0,35,0.00,,,0.00,Wunderground v.1.15,2017-02-23 23:16:00,
2017-02-23 15:21:00,56.7,30.7,30.18,SSW,207,2.0,2.0,37,0.00,,,0.00,Wunderground v.1.15,2017-02-23 23:21:00,
2017-02-23 15:26:00,56.6,31.3,30.19,WSW,241,2.0,4.0,38,0.00,,,0.00,Wunderground v.1.15,2017-02-23 23:26:00,
2017-02-23 15:31:00,56.5,29.1,30.19,NW,320,3.0,3.0,35,0.00,,,0.00,Wunderground v.1.15,2017-02-23 23:31:00,
2017-02-23 15:41:00,56.2,28.2,30.18,West,269,3.0,3.0,34,0.00,,,0.00,Wunderground v.1.15,2017-02-23 23:41:00,
2017-02-23 15:46:00,56.4,28.3,30.18,NW,305,3.0,3.0,34,0.00,,,0.00,Wunderground v.1.15,2017-02-23 23:46:00,
2017-02-23 15:51:00,56.4,30.4,30.18,SW,223,2.0,6.0,37,0.00,,,0.00,Wunderground v.1.15,2017-02-23 23:51:00,
2017-02-23 15:56:00,56.2,28.9,30.18,WSW,239,3.0,6.0,35,0.00,,,0.00,Wunderground v.1.15,2017-02-23 23:56:00,
2017-02-23 16:01:00,55.9,30.0,30.18,WNW,294,4.0,4.0,37,0.00,,,0.00,Wunderground v.1.15,2017-02-24 00:01:00,
2017-02-23 16:11:00,55.8,28.5,30.18,NW,326,1.0,4.0,35,0.00,,,0.00,Wunderground v.1.15,2017-02-24 00:11:00,
2017-02-23 16:16:00,55.7,27.7,30.18,SW,234,1.0,4.0,34,0.00,,,0.00,Wunderground v.1.15,2017-02-24 00:16:00,
2017-02-23 16:21:00,55.7,29.1,30.18,WSW,240,1.0,1.0,36,0.00,,,0.00,Wunderground v.1.15,2017-02-24 00:21:00,
2017-02-23 16:26:00,55.8,29.9,30.18,SW,227,0.0,3.0,37,0.00,,,0.00,Wunderground v.1.15,2017-02-24 00:26:00,
2017-02-23 16:31:00,56.0,29.4,30.18,NW,315,0.0,0.0,36,0.00,,,0.00,Wunderground v.1.15,2017-02-24 00:31:00,
2017-02-23 16:41:00,55.7,29.1,30.18,WSW,250,0.0,0.0,36,0.00,,,0.00,Wunderground v.1.15,2017-02-24 00:41:00,
2017-02-23 16:51:00,55.6,31.0,30.18,SSW,195,1.0,1.0,39,0.00,,,0.00,Wunderground v.1.15,2017-02-24 00:51:00,
2017-02-23 16:56:00,55.5,31.5,30.18,SW,225,1.0,2.0,40,0.00,,,0.00,Wunderground v.1.15,2017-02-24 00:56:00,
2017-02-23 17:01:00,55.0,31.7,30.18,WSW,247,2.0,2.0,41,0.00,,,0.00,Wunderground v.1.15,2017-02-24 01:01:00,
2017-02-23 17:11:00,53.9,34.1,30.18,West,271,1.0,4.0,47,0.00,,,0.00,Wunderground v.1.15,2017-02-24 01:11:00,
2017-02-23 17:16:00,53.2,34.0,30.18,SW,234,1.0,4.0,48,0.00,,,0.00,Wunderground v.1.15,2017-02-24 01:16:00,
2017-02-23 17:26:00,51.7,34.6,30.18,WSW,239,3.0,5.0,52,0.00,,,0.00,Wunderground v.1.15,2017-02-24 01:26:00,
2017-02-23 17:31:00,50.9,35.3,30.18,South,186,4.0,4.0,55,0.00,,,0.00,Wunderground v.1.15,2017-02-24 01:31:00,
2017-02-23 17:41:00,49.9,36.6,30.18,SSW,213,5.0,6.0,60,0.00,,,0.00,Wunderground v.1.15,2017-02-24 01:41:00,
2017-02-23 17:46:00,49.5,36.6,30.19,SW,219,5.0,6.0,61,0.00,,,0.00,Wunderground v.1.15,2017-02-24 01:46:00,
2017-02-23 17:51:00,49.2,36.7,30.18,SSW,203,3.0,3.0,62,0.00,,,0.00,Wunderground v.1.15,2017-02-24 01:51:00,
2017-02-23 18:01:00,48.5,37.3,30.19,SSW,213,3.0,3.0,65,0.00,,,0.00,Wunderground v.1.15,2017-02-24 02:01:00,
2017-02-23 18:11:00,47.9,36.7,30.19,West,265,2.0,9.0,65,0.00,,,0.00,Wunderground v.1.15,2017-02-24 02:11:00,
2017-02-23 18:16:00,47.7,36.5,30.19,WNW,285,2.0,9.0,65,0.00,,,0.00,Wunderground v.1.15,2017-02-24 02:16:00,
2017-02-23 18:21:00,47.5,37.1,30.19,WSW,245,2.0,2.0,67,0.00,,,0.00,Wunderground v.1.15,2017-02-24 02:21:00,
2017-02-23 18:26:00,47.3,37.3,30.19,West,263,3.0,3.0,68,0.00,,,0.00,Wunderground v.1.15,2017-02-24 02:26:00,
2017-02-23 18:31:00,47.0,37.4,30.19,WSW,237,2.0,2.0,69,0.00,,,0.00,Wunderground v.1.15,2017-02-24 02:31:00,
2017-02-23 18:41:00,46.5,37.6,30.19,West,273,1.0,7.0,71,0.00,,,0.00,Wunderground v.1.15,2017-02-24 02:41:00,
2017-02-23 18:46:00,46.4,37.9,30.20,SW,220,2.0,7.0,72,0.00,,,0.00,Wunderground v.1.15,2017-02-24 02:46:00,
2017-02-23 18:51:00,46.2,37.7,30.20,WNW,286,3.0,6.0,72,0.00,,,0.00,Wunderground v.1.15,2017-02-24 02:51:00,
2017-02-23 18:56:00,46.2,37.3,30.20,WNW,288,2.0,6.0,71,0.00,,,0.00,Wunderground v.1.15,2017-02-24 02:56:00,
2017-02-23 19:01:00,46.1,36.5,30.20,NNW,340,1.0,1.0,69,0.00,,,0.00,Wunderground v.1.15,2017-02-24 03:01:00,
2017-02-23 19:11:00,46.2,36.6,30.20,North,355,2.0,2.0,69,0.00,,,0.00,Wunderground v.1.15,2017-02-24 03:11:00,
2017-02-23 19:16:00,46.0,36.8,30.20,NNW,344,1.0,2.0,70,0.00,,,0.00,Wunderground v.1.15,2017-02-24 03:16:00,
2017-02-23 19:21:00,45.8,36.9,30.20,NW,317,0.0,0.0,71,0.00,,,0.00,Wunderground v.1.15,2017-02-24 03:21:00,
2017-02-23 19:26:00,45.5,37.0,30.20,NNW,336,1.0,1.0,72,0.00,,,0.00,Wunderground v.1.15,2017-02-24 03:26:00,
2017-02-23 19:31:00,45.5,37.0,30.19,NNW,335,1.0,1.0,72,0.00,,,0.00,Wunderground v.1.15,2017-02-24 03:31:00,
2017-02-23 19:41:00,45.4,37.2,30.20,NW,311,3.0,5.0,73,0.00,,,0.00,Wunderground v.1.15,2017-02-24 03:41:00,
2017-02-23 19:46:00,45.4,37.2,30.20,NNW,347,3.0,5.0,73,0.00,,,0.00,Wunderground v.1.15,2017-02-24 03:46:00,
2017-02-23 19:51:00,45.4,37.2,30.19,WNW,299,3.0,5.0,73,0.00,,,0.00,Wunderground v.1.15,2017-02-24 03:51:00,
2017-02-23 20:01:00,45.1,37.6,30.19,NW,306,1.0,4.0,75,0.00,,,0.00,Wunderground v.1.15,2017-02-24 04:01:00,
2017-02-23 20:11:00,44.8,37.4,30.19,NNW,333,1.0,1.0,75,0.00,,,0.00,Wunderground v.1.15,2017-02-24 04:11:00,
2017-02-23 20:16:00,44.7,37.6,30.19,NNW,328,1.0,1.0,76,0.00,,,0.00,Wunderground v.1.15,2017-02-24 04:16:00,
2017-02-23 20:21:00,44.7,37.6,30.19,NW,315,1.0,1.0,76,0.00,,,0.00,Wunderground v.1.15,2017-02-24 04:21:00,